• In Belarus
  • List of Countries
  • For 7 days
  • Water Temperature
  • Satellite Maps
  • Weather Map
  • Weather Widgets
  • user-avatar
    Login

    Hourly Weather Kowalice

    Today, 22 October, Monday

    Time Temperature Precipitation Wind Pressure Humidity
    00:00 +7°C° 0 mm 1 mps 758 mmHg 82%
    01:00 +7°C° 0 mm 1 mps 758 mmHg 82%
    02:00 +7°C° 0 mm 1 mps 758 mmHg 83%
    03:00 +6°C° 0 mm 2 mps 757 mmHg 84%
    04:00 +5°C° 0 mm 2 mps 757 mmHg 85%
    05:00 +5°C° 0 mm 2 mps 757 mmHg 86%
    06:00 +5°C° 0 mm 2 mps 757 mmHg 86%
    07:00 +5°C° 0 mm 2 mps 757 mmHg 87%
    08:00 +7°C° 0 mm 2 mps 757 mmHg 78%
    09:00 +9°C° 0 mm 2 mps 757 mmHg 69%
    10:00 +11°C° 0 mm 3 mps 757 mmHg 60%
    11:00 +12°C° 0 mm 3 mps 757 mmHg 58%
    12:00 +13°C° 0 mm 3 mps 757 mmHg 56%
    13:00 +14°C° 0 mm 3 mps 756 mmHg 54%
    14:00 +13°C° 0.3 mm 3 mps 756 mmHg 63%
    15:00 +12°C° 0.3 mm 3 mps 756 mmHg 72%
    16:00 +11°C° 0.3 mm 3 mps 756 mmHg 81%
    17:00 +10°C° 0.1 mm 3 mps 756 mmHg 84%
    18:00 +10°C° 0.1 mm 3 mps 757 mmHg 86%
    19:00 +9°C° 0.1 mm 3 mps 757 mmHg 88%
    20:00 +8°C° 0 mm 3 mps 757 mmHg 88%
    21:00 +8°C° 0 mm 2 mps 758 mmHg 88%
    22:00 +7°C° 0 mm 2 mps 758 mmHg 88%
    23:00 +6°C° 0 mm 2 mps 758 mmHg 87%

    Tomorrow, 23 October, Tuesday

    Time Temperature Precipitation Wind Pressure Humidity
    00:00 +6°C° 0 mm 2 mps 758 mmHg 86%
    01:00 +6°C° 0 mm 2 mps 758 mmHg 86%
    02:00 +5°C° 0 mm 3 mps 757 mmHg 85%
    03:00 +5°C° 0 mm 3 mps 757 mmHg 84%
    04:00 +5°C° 0 mm 3 mps 756 mmHg 83%
    05:00 +5°C° 0 mm 4 mps 755 mmHg 83%
    06:00 +5°C° 0 mm 4 mps 755 mmHg 82%
    07:00 +5°C° 0 mm 5 mps 754 mmHg 81%
    08:00 +4°C° 0.1 mm 6 mps 753 mmHg 78%
    09:00 +5°C° 0.1 mm 7 mps 752 mmHg 75%
    10:00 +6°C° 0.1 mm 8 mps 752 mmHg 72%
    11:00 +6°C° 0.5 mm 8 mps 751 mmHg 74%
    12:00 +6°C° 0.5 mm 9 mps 750 mmHg 76%
    13:00 +6°C° 0.5 mm 9 mps 749 mmHg 78%
    14:00 +7°C° 0.2 mm 9 mps 748 mmHg 79%
    15:00 +7°C° 0.2 mm 9 mps 747 mmHg 80%
    16:00 +8°C° 0.2 mm 9 mps 746 mmHg 81%
    17:00 +8°C° 0.4 mm 10 mps 746 mmHg 81%
    18:00 +9°C° 0.4 mm 10 mps 745 mmHg 82%
    19:00 +9°C° 0.4 mm 10 mps 745 mmHg 83%
    20:00 +9°C° 0.8 mm 10 mps 744 mmHg 83%
    21:00 +11°C° 0.8 mm 10 mps 744 mmHg 83%
    22:00 +11°C° 0.8 mm 10 mps 743 mmHg 84%
    23:00 +11°C° 1 mm 10 mps 743 mmHg 83%

    Day after tomorrow, 24 October, Wednesday

    Time Temperature Precipitation Wind Pressure Humidity
    00:00 +11°C° 1 mm 10 mps 742 mmHg 83%
    01:00 +11°C° 1 mm 10 mps 742 mmHg 83%
    02:00 +11°C° 0.8 mm 10 mps 742 mmHg 81%
    03:00 +9°C° 0.8 mm 10 mps 742 mmHg 78%
    04:00 +9°C° 0.8 mm 10 mps 743 mmHg 76%
    05:00 +8°C° 0.1 mm 9 mps 743 mmHg 74%
    06:00 +7°C° 0.1 mm 8 mps 744 mmHg 72%
    07:00 +6°C° 0.1 mm 7 mps 745 mmHg 71%
    08:00 +6°C° 0 mm 7 mps 745 mmHg 67%
    09:00 +6°C° 0 mm 8 mps 746 mmHg 63%
    10:00 +7°C° 0 mm 8 mps 747 mmHg 59%
    11:00 +7°C° 0 mm 8 mps 747 mmHg 57%
    12:00 +8°C° 0 mm 7 mps 747 mmHg 55%
    13:00 +8°C° 0 mm 7 mps 748 mmHg 54%
    14:00 +8°C° 0 mm 6 mps 748 mmHg 54%
    15:00 +8°C° 0 mm 6 mps 748 mmHg 55%
    16:00 +8°C° 0 mm 5 mps 749 mmHg 55%
    17:00 +7°C° 0 mm 5 mps 749 mmHg 59%
    18:00 +7°C° 0 mm 4 mps 750 mmHg 63%
    19:00 +7°C° 0 mm 3 mps 750 mmHg 67%
    20:00 +7°C° 0 mm 3 mps 750 mmHg 69%
    21:00 +7°C° 0 mm 3 mps 750 mmHg 70%
    22:00 +7°C° 0 mm 3 mps 750 mmHg 71%
    23:00 +8°C° 0.2 mm 3 mps 749 mmHg 77%

    25 October, Thursday

    Time Temperature Precipitation Wind Pressure Humidity
    00:00 +8°C° 0.2 mm 3 mps 749 mmHg 82%
    01:00 +8°C° 0.2 mm 3 mps 749 mmHg 87%
    02:00 +8°C° 0.4 mm 4 mps 748 mmHg 88%
    03:00 +9°C° 0.4 mm 5 mps 748 mmHg 89%
    04:00 +10°C° 0.4 mm 6 mps 747 mmHg 89%
    05:00 +10°C° 0.1 mm 7 mps 747 mmHg 87%
    06:00 +10°C° 0.1 mm 7 mps 747 mmHg 85%
    07:00 +10°C° 0.1 mm 7 mps 746 mmHg 83%
    08:00 +10°C° 0.1 mm 7 mps 746 mmHg 82%
    09:00 +10°C° 0.1 mm 7 mps 746 mmHg 82%
    10:00 +10°C° 0.1 mm 7 mps 746 mmHg 81%
    11:00 +10°C° 0.1 mm 7 mps 746 mmHg 80%
    12:00 +10°C° 0.1 mm 7 mps 746 mmHg 80%
    13:00 +10°C° 0.1 mm 7 mps 746 mmHg 79%
    14:00 +10°C° 0.1 mm 7 mps 746 mmHg 79%
    15:00 +10°C° 0.1 mm 6 mps 746 mmHg 79%
    16:00 +10°C° 0.1 mm 6 mps 746 mmHg 79%
    17:00 +10°C° 0.1 mm 5 mps 747 mmHg 80%
    18:00 +10°C° 0.1 mm 5 mps 747 mmHg 80%
    19:00 +11°C° 0.1 mm 4 mps 747 mmHg 81%
    20:00 +10°C° 0.1 mm 4 mps 747 mmHg 81%
    21:00 +10°C° 0.1 mm 4 mps 747 mmHg 81%
    22:00 +10°C° 0.1 mm 4 mps 747 mmHg 81%
    23:00 +9°C° 0 mm 3 mps 747 mmHg 84%

    26 October, Friday

    Time Temperature Precipitation Wind Pressure Humidity
    00:00 +9°C° 0 mm 3 mps 747 mmHg 86%
    01:00 +8°C° 0 mm 3 mps 747 mmHg 89%
    02:00 +8°C° 0 mm 2 mps 747 mmHg 91%
    03:00 +8°C° 0 mm 2 mps 747 mmHg 92%
    04:00 +8°C° 0 mm 2 mps 746 mmHg 94%
    05:00 +8°C° 0 mm 2 mps 746 mmHg 95%
    06:00 +8°C° 0 mm 2 mps 746 mmHg 95%
    07:00 +8°C° 0 mm 2 mps 746 mmHg 95%
    08:00 +9°C° 0 mm 2 mps 746 mmHg 89%
    09:00 +10°C° 0 mm 3 mps 745 mmHg 83%
    10:00 +11°C° 0 mm 3 mps 745 mmHg 77%
    11:00 +12°C° 0 mm 3 mps 745 mmHg 72%
    12:00 +13°C° 0 mm 4 mps 744 mmHg 67%
    13:00 +14°C° 0 mm 4 mps 744 mmHg 62%
    14:00 +13°C° 0 mm 4 mps 743 mmHg 64%
    15:00 +13°C° 0 mm 3 mps 742 mmHg 66%
    16:00 +12°C° 0 mm 3 mps 742 mmHg 68%
    17:00 +12°C° 0 mm 3 mps 741 mmHg 70%
    18:00 +11°C° 0 mm 3 mps 741 mmHg 73%
    19:00 +10°C° 0 mm 2 mps 741 mmHg 76%
    20:00 +10°C° 0 mm 3 mps 741 mmHg 75%
    21:00 +10°C° 0 mm 3 mps 741 mmHg 75%
    22:00 +10°C° 0 mm 3 mps 740 mmHg 75%
    23:00 +10°C° 0 mm 2 mps 740 mmHg 78%

    27 October, Saturday

    Time Temperature Precipitation Wind Pressure Humidity
    00:00 +9°C° 0 mm 2 mps 740 mmHg 81%
    01:00 +9°C° 0 mm 2 mps 740 mmHg 84%
    02:00 +8°C° 0 mm 2 mps 740 mmHg 87%
    03:00 +8°C° 0 mm 2 mps 740 mmHg 90%
    04:00 +7°C° 0 mm 2 mps 739 mmHg 93%
    05:00 +8°C° 0 mm 1 mps 739 mmHg 92%
    06:00 +8°C° 0 mm 1 mps 739 mmHg 92%
    07:00 +8°C° 0 mm 1 mps 739 mmHg 92%
    08:00 +9°C° 0.1 mm 1 mps 739 mmHg 89%
    09:00 +9°C° 0.1 mm 1 mps 739 mmHg 86%
    10:00 +9°C° 0.1 mm 0 mps 739 mmHg 83%
    11:00 +10°C° 0.7 mm 1 mps 738 mmHg 85%
    12:00 +10°C° 0.7 mm 1 mps 738 mmHg 87%
    13:00 +9°C° 0.7 mm 1 mps 738 mmHg 89%
    14:00 +8°C° 1.1 mm 2 mps 737 mmHg 90%
    15:00 +8°C° 1.1 mm 2 mps 737 mmHg 91%
    16:00 +8°C° 1.1 mm 2 mps 737 mmHg 92%
    17:00 +7°C° 0.5 mm 2 mps 737 mmHg 92%
    18:00 +7°C° 0.5 mm 2 mps 737 mmHg 93%
    19:00 +7°C° 0.5 mm 2 mps 737 mmHg 93%
    20:00 +7°C° 0.6 mm 2 mps 737 mmHg 93%
    21:00 +6°C° 0.6 mm 2 mps 737 mmHg 93%
    22:00 +6°C° 0.6 mm 2 mps 737 mmHg 93%
    23:00 +6°C° 0.6 mm 2 mps 737 mmHg 93%

    28 October, Sunday

    Time Temperature Precipitation Wind Pressure Humidity
    00:00 +6°C° 0.6 mm 2 mps 737 mmHg 93%
    01:00 +5°C° 0.6 mm 3 mps 737 mmHg 93%
    02:00 +5°C° 0.5 mm 2 mps 737 mmHg 92%
    03:00 +5°C° 0.5 mm 2 mps 738 mmHg 92%
    04:00 +5°C° 0.5 mm 2 mps 738 mmHg 92%
    05:00 +5°C° 0.5 mm 2 mps 739 mmHg 92%
    06:00 +5°C° 0.5 mm 2 mps 739 mmHg 92%
    07:00 +5°C° 0.5 mm 2 mps 740 mmHg 92%
    08:00 +6°C° 0.2 mm 2 mps 741 mmHg 89%
    09:00 +6°C° 0.2 mm 2 mps 741 mmHg 85%
    10:00 +7°C° 0.2 mm 2 mps 742 mmHg 82%
    11:00 +7°C° 0 mm 2 mps 742 mmHg 76%
    12:00 +8°C° 0 mm 2 mps 743 mmHg 70%
    13:00 +9°C° 0 mm 2 mps 743 mmHg 65%
    14:00 +8°C° 0 mm 2 mps 743 mmHg 67%
    15:00 +9°C° 0 mm 1 mps 744 mmHg 69%
    16:00 +9°C° 0 mm 1 mps 744 mmHg 71%
    17:00 +8°C° 0 mm 1 mps 744 mmHg 74%
    18:00 +6°C° 0 mm 2 mps 745 mmHg 78%
    19:00 +5°C° 0 mm 2 mps 745 mmHg 81%
    20:00 +5°C° 0 mm 2 mps 746 mmHg 82%
    21:00 +5°C° 0 mm 2 mps 746 mmHg 83%
    22:00 +4°C° 0 mm 2 mps 746 mmHg 84%
    23:00 +4°C° 0 mm 2 mps 746 mmHg 85%
    Show more